Location: Unspecified
(0.0000°N, 0.0000°E)
Time: 11:47:58
(UTC+00:00)

deb Explorer IX - Pass Details

Date: 20 November 2019
Orbit: 545 x 1105 km, 38.8° (Epoch: 08 December)

Event Time Altitude Azimuth Distance (km) Brightness Sun altitude
Rises 21:42:59 0° 249° (WSW) 3,879 ? -54.0°
Enters shadow 21:45:30 - 256° (WSW) 3,101 ? -54.5°
Reaches altitude 10° 21:46:01 10° 258° (WSW) 2,947 - -54.7°
Maximum altitude 21:52:25 33° 319° (NW) 1,758 - -55.9°
Drops below altitude 10° 21:58:41 10° 21° (NNE) 2,868 - -57.2°
Sets 22:01:37 0° 30° (NNE) 3,762 - -57.7°
